DAL76 TNCM-TJSJ

Flight info

Callsign DAL76
Flight time 0h 37m
Altitude 19000
Route BOPAT2 JUICE DCT CHAKA DCT SNGRA DCT REKUA
Aircraft A321/M-SDE3FGHIRWY/LB1

Departure

Time 2026-05-03 20:50
Airport Princess Juliana International Airport (TNCM)

Arrival

Time 2026-05-03 21:27
Airport Luis Munoz Marin International Airport (TJSJ)
Time Latitude Longitude Altitude Speed Heading
2026-05-03 20:24 18.04348 -63.11227 29 ft 0 kts 349°
2026-05-03 20:33 18.04342 -63.11225 29 ft 4 kts
2026-05-03 20:33 18.04322 -63.11227 29 ft 4 kts
2026-05-03 20:33 18.04298 -63.11235 29 ft 4 kts 41°
2026-05-03 20:33 18.04281 -63.11256 29 ft 4 kts 56°
2026-05-03 20:34 18.04266 -63.11279 29 ft 4 kts 57°
2026-05-03 20:34 18.04252 -63.11303 29 ft 4 kts 56°
2026-05-03 20:34 18.04248 -63.11309 29 ft 2 kts 54°
2026-05-03 20:43 18.04249 -63.11308 29 ft 2 kts 52°
2026-05-03 20:43 18.04256 -63.11310 29 ft 1 kts 347°
2026-05-03 20:43 18.04260 -63.11436 29 ft 31 kts 241°
2026-05-03 20:43 18.04115 -63.11621 28 ft 31 kts 228°
2026-05-03 20:44 18.04048 -63.11805 28 ft 27 kts 263°
2026-05-03 20:44 18.04042 -63.11845 28 ft 0 kts 260°
2026-05-03 20:44 18.04042 -63.11848 28 ft 0 kts 260°
2026-05-03 20:44 18.04041 -63.11852 28 ft 1 kts 260°
2026-05-03 20:45 18.04040 -63.11857 28 ft 0 kts 260°
2026-05-03 20:45 18.04040 -63.11860 28 ft 1 kts 260°
2026-05-03 20:45 18.04039 -63.11864 28 ft 1 kts 260°
2026-05-03 20:45 18.04039 -63.11868 28 ft 1 kts 260°
2026-05-03 20:46 18.04038 -63.11872 28 ft 1 kts 260°
2026-05-03 20:46 18.04037 -63.11876 28 ft 1 kts 260°
2026-05-03 20:46 18.04037 -63.11877 28 ft 0 kts 260°
2026-05-03 20:47 18.04036 -63.11882 28 ft 3 kts 260°
2026-05-03 20:47 18.04029 -63.11904 28 ft 5 kts 248°
2026-05-03 20:47 18.03981 -63.11946 28 ft 10 kts 187°
2026-05-03 20:47 18.03948 -63.11896 28 ft 9 kts 88°
2026-05-03 20:48 18.03950 -63.11881 28 ft 0 kts 81°
2026-05-03 20:48 18.03950 -63.11880 28 ft 0 kts 81°
2026-05-03 20:48 18.03950 -63.11879 28 ft 0 kts 81°
2026-05-03 20:49 18.03951 -63.11877 28 ft 0 kts 81°
2026-05-03 20:49 18.03951 -63.11875 28 ft 0 kts 81°
2026-05-03 20:49 18.03953 -63.11862 28 ft 8 kts 81°
2026-05-03 20:50 18.04010 -63.11465 28 ft 104 kts 81°
2026-05-03 20:50 18.04153 -63.10454 145 ft 167 kts 82°
2026-05-03 20:50 18.04071 -63.09240 1073 ft 167 kts 114°
2026-05-03 20:50 18.03262 -63.08384 1977 ft 180 kts 150°
2026-05-03 20:51 18.02011 -63.07956 2246 ft 201 kts 163°
2026-05-03 20:51 18.00560 -63.07622 2398 ft 227 kts 165°
2026-05-03 20:51 17.98919 -63.07257 2810 ft 251 kts 165°
2026-05-03 20:51 17.97183 -63.06875 3614 ft 257 kts 167°
2026-05-03 20:52 17.95371 -63.06878 4442 ft 268 kts 190°
2026-05-03 20:52 17.93681 -63.07762 5232 ft 280 kts 218°
2026-05-03 20:52 17.92557 -63.09445 5990 ft 291 kts 249°
2026-05-03 20:52 17.92351 -63.11567 6746 ft 298 kts 280°
2026-05-03 20:53 17.93005 -63.13628 7515 ft 298 kts 292°
2026-05-03 20:53 17.93788 -63.15655 8305 ft 300 kts 292°
2026-05-03 20:53 17.94578 -63.17692 9102 ft 304 kts 292°
2026-05-03 20:53 17.95358 -63.19707 9921 ft 303 kts 292°
2026-05-03 20:54 17.96152 -63.21772 10458 ft 312 kts 291°
2026-05-03 20:54 17.97878 -63.26331 10793 ft 355 kts 291°
2026-05-03 20:54 17.98796 -63.28770 11272 ft 363 kts 291°
2026-05-03 20:55 17.99730 -63.31236 11860 ft 367 kts 291°
2026-05-03 20:55 18.00684 -63.33748 12506 ft 370 kts 292°
2026-05-03 20:55 18.01641 -63.36264 13143 ft 373 kts 291°
2026-05-03 20:55 18.02603 -63.38804 13807 ft 375 kts 292°
2026-05-03 20:56 18.03568 -63.41356 14382 ft 378 kts 291°
2026-05-03 20:56 18.04528 -63.43895 14951 ft 380 kts 291°
2026-05-03 20:56 18.05503 -63.46479 15586 ft 380 kts 291°
2026-05-03 20:56 18.06476 -63.49060 16201 ft 381 kts 291°
2026-05-03 20:57 18.07453 -63.51654 16788 ft 382 kts 291°
2026-05-03 20:57 18.08428 -63.54250 17411 ft 383 kts 291°
2026-05-03 20:57 18.09408 -63.56856 17950 ft 385 kts 291°
2026-05-03 20:57 18.10396 -63.59485 18458 ft 388 kts 291°
2026-05-03 20:58 18.11387 -63.62128 18901 ft 390 kts 291°
2026-05-03 20:58 18.12386 -63.64792 19340 ft 393 kts 291°
2026-05-03 20:58 18.13190 -63.67555 19737 ft 398 kts 282°
2026-05-03 20:58 18.13600 -63.70443 19990 ft 401 kts 278°
2026-05-03 20:59 18.13968 -63.73360 20052 ft 407 kts 278°
2026-05-03 20:59 18.14334 -63.76291 20051 ft 412 kts 278°
2026-05-03 20:59 18.14708 -63.79272 20050 ft 411 kts 278°
2026-05-03 20:59 18.15085 -63.82252 20051 ft 411 kts 278°
2026-05-03 21:00 18.15466 -63.85232 20053 ft 411 kts 278°
2026-05-03 21:00 18.15594 -63.86236 20055 ft 410 kts 278°
2026-05-03 21:00 18.16222 -63.91175 20055 ft 410 kts 278°
2026-05-03 21:00 18.16601 -63.94153 20056 ft 411 kts 278°
2026-05-03 21:01 18.16983 -63.97141 20057 ft 412 kts 278°
2026-05-03 21:01 18.17364 -64.00119 20052 ft 411 kts 278°
2026-05-03 21:01 18.17744 -64.03096 20052 ft 411 kts 278°
2026-05-03 21:01 18.18121 -64.06068 20054 ft 409 kts 278°
2026-05-03 21:02 18.18496 -64.09039 20045 ft 410 kts 278°
2026-05-03 21:02 18.18866 -64.11971 20047 ft 410 kts 278°
2026-05-03 21:02 18.19239 -64.14954 20049 ft 416 kts 278°
2026-05-03 21:02 18.19623 -64.18015 20054 ft 430 kts 278°
2026-05-03 21:03 18.20021 -64.21189 20066 ft 442 kts 277°
2026-05-03 21:03 18.20429 -64.24432 20056 ft 451 kts 278°
2026-05-03 21:03 18.20839 -64.27715 20050 ft 455 kts 278°
2026-05-03 21:03 18.21258 -64.31018 20053 ft 457 kts 277°
2026-05-03 21:04 18.21676 -64.34339 20059 ft 458 kts 278°
2026-05-03 21:04 18.22091 -64.37662 20058 ft 458 kts 277°
2026-05-03 21:04 18.22504 -64.40979 20053 ft 457 kts 278°
2026-05-03 21:04 18.22911 -64.44247 20055 ft 457 kts 277°
2026-05-03 21:05 18.23322 -64.47565 20053 ft 458 kts 277°
2026-05-03 21:05 18.23732 -64.50886 20052 ft 458 kts 277°
2026-05-03 21:05 18.24141 -64.54211 20050 ft 458 kts 277°
2026-05-03 21:05 18.24552 -64.57536 20056 ft 459 kts 277°
2026-05-03 21:06 18.24961 -64.60862 20074 ft 458 kts 277°
2026-05-03 21:06 18.25370 -64.64181 20061 ft 458 kts 277°
2026-05-03 21:06 18.25779 -64.67502 20064 ft 458 kts 277°
2026-05-03 21:06 18.26189 -64.70824 20057 ft 458 kts 277°
2026-05-03 21:07 18.26597 -64.74152 20066 ft 458 kts 277°
2026-05-03 21:07 18.27003 -64.77470 20070 ft 458 kts 277°
2026-05-03 21:07 18.27413 -64.80795 20065 ft 458 kts 277°
2026-05-03 21:07 18.27815 -64.84071 20064 ft 458 kts 277°
2026-05-03 21:08 18.28220 -64.87388 20061 ft 458 kts 277°
2026-05-03 21:08 18.28625 -64.90713 20052 ft 458 kts 277°
2026-05-03 21:08 18.29029 -64.94029 20053 ft 458 kts 277°
2026-05-03 21:08 18.29436 -64.97369 20059 ft 458 kts 277°
2026-05-03 21:09 18.29840 -65.00687 20072 ft 458 kts 277°
2026-05-03 21:09 18.30241 -65.04009 20060 ft 458 kts 277°
2026-05-03 21:09 18.30638 -65.07333 20056 ft 458 kts 277°
2026-05-03 21:09 18.31037 -65.10659 20057 ft 458 kts 277°
2026-05-03 21:10 18.31440 -65.13987 20061 ft 458 kts 277°
2026-05-03 21:10 18.31838 -65.17266 20073 ft 457 kts 277°
2026-05-03 21:10 18.32241 -65.20582 20073 ft 458 kts 277°
2026-05-03 21:10 18.32642 -65.23907 20052 ft 458 kts 277°
2026-05-03 21:11 18.33034 -65.27196 19890 ft 443 kts 277°
2026-05-03 21:11 18.33408 -65.30338 19638 ft 425 kts 277°
2026-05-03 21:11 18.33774 -65.33398 19079 ft 418 kts 277°
2026-05-03 21:11 18.34138 -65.36413 18479 ft 413 kts 277°
2026-05-03 21:12 18.34498 -65.39390 17807 ft 408 kts 277°
2026-05-03 21:12 18.34855 -65.42339 17107 ft 404 kts 277°
2026-05-03 21:12 18.35206 -65.45264 16408 ft 401 kts 277°
2026-05-03 21:12 18.35552 -65.48165 15732 ft 399 kts 277°
2026-05-03 21:13 18.35888 -65.51004 15172 ft 393 kts 277°
2026-05-03 21:13 18.36224 -65.53873 14626 ft 388 kts 277°
2026-05-03 21:13 18.36547 -65.56642 14098 ft 384 kts 277°
2026-05-03 21:13 18.36873 -65.59421 13528 ft 381 kts 277°
2026-05-03 21:14 18.37201 -65.62174 12977 ft 377 kts 277°
2026-05-03 21:14 18.37683 -65.64870 12436 ft 374 kts 282°
2026-05-03 21:14 18.38232 -65.67540 11878 ft 371 kts 282°
2026-05-03 21:14 18.38771 -65.70186 11320 ft 368 kts 282°
2026-05-03 21:15 18.39305 -65.72817 10783 ft 365 kts 282°
2026-05-03 21:15 18.39765 -65.75392 10632 ft 350 kts 275°
2026-05-03 21:15 18.39758 -65.77896 10514 ft 335 kts 262°
2026-05-03 21:15 18.39347 -65.80260 10396 ft 322 kts 258°
2026-05-03 21:16 18.38920 -65.82524 10280 ft 309 kts 258°
2026-05-03 21:16 18.38513 -65.84715 10075 ft 301 kts 258°
2026-05-03 21:16 18.38114 -65.86870 9930 ft 301 kts 258°
2026-05-03 21:16 18.37706 -65.89058 9373 ft 305 kts 257°
2026-05-03 21:17 18.37306 -65.91201 9027 ft 301 kts 258°
2026-05-03 21:17 18.37034 -65.92657 8744 ft 300 kts 257°
2026-05-03 21:17 18.36516 -65.95504 8209 ft 298 kts 261°
2026-05-03 21:17 18.36510 -65.97664 7538 ft 295 kts 277°
2026-05-03 21:18 18.37046 -65.99743 6735 ft 293 kts 288°
2026-05-03 21:18 18.37699 -66.01765 5940 ft 291 kts 288°
2026-05-03 21:18 18.38336 -66.03766 5373 ft 286 kts 288°
2026-05-03 21:18 18.38747 -66.05067 5010 ft 282 kts 288°
2026-05-03 21:19 18.39563 -66.07650 4313 ft 282 kts 287°
2026-05-03 21:19 18.40169 -66.09582 4040 ft 266 kts 287°
2026-05-03 21:19 18.40723 -66.11358 3980 ft 248 kts 285°
2026-05-03 21:19 18.41256 -66.13074 3905 ft 246 kts 286°
2026-05-03 21:20 18.41785 -66.14782 3648 ft 247 kts 287°
2026-05-03 21:20 18.42141 -66.15929 3375 ft 250 kts 287°
2026-05-03 21:20 18.42686 -66.17683 2984 ft 254 kts 287°
2026-05-03 21:20 18.43240 -66.19469 2565 ft 260 kts 287°
2026-05-03 21:21 18.44107 -66.21108 2417 ft 251 kts 311°
2026-05-03 21:21 18.45436 -66.22192 2413 ft 238 kts 336°
2026-05-03 21:21 18.47534 -66.22595 2411 ft 230 kts 10°
2026-05-03 21:21 18.49021 -66.22123 2409 ft 221 kts 33°
2026-05-03 21:22 18.49863 -66.21498 2405 ft 218 kts 47°
2026-05-03 21:22 18.50741 -66.20280 2404 ft 215 kts 68°
2026-05-03 21:22 18.51150 -66.18799 2397 ft 209 kts 88°
2026-05-03 21:22 18.50949 -66.17325 2395 ft 202 kts 118°
2026-05-03 21:23 18.50206 -66.16061 2400 ft 202 kts 120°
2026-05-03 21:23 18.49504 -66.14795 2374 ft 195 kts 120°
2026-05-03 21:23 18.48849 -66.13604 2189 ft 180 kts 121°
2026-05-03 21:23 18.48111 -66.12612 2027 ft 165 kts 135°
2026-05-03 21:24 18.47305 -66.11830 1874 ft 155 kts 137°
2026-05-03 21:24 18.46516 -66.11110 1721 ft 146 kts 137°
2026-05-03 21:24 18.45737 -66.10430 1569 ft 145 kts 137°
2026-05-03 21:24 18.44938 -66.09756 1414 ft 144 kts 139°
2026-05-03 21:25 18.44171 -66.09103 1357 ft 142 kts 138°
2026-05-03 21:25 18.43553 -66.08344 1270 ft 134 kts 115°
2026-05-03 21:25 18.43366 -66.07423 1113 ft 129 kts 90°
2026-05-03 21:25 18.43366 -66.06485 969 ft 125 kts 93°
2026-05-03 21:26 18.43365 -66.05585 819 ft 122 kts 91°
2026-05-03 21:26 18.43363 -66.04679 668 ft 123 kts 87°
2026-05-03 21:26 18.43360 -66.03761 505 ft 126 kts 85°
2026-05-03 21:26 18.43358 -66.02854 328 ft 124 kts 89°
2026-05-03 21:27 18.43356 -66.01966 150 ft 122 kts 88°
2026-05-03 21:27 18.43357 -66.01074 31 ft 119 kts 88°
2026-05-03 21:27 18.43357 -66.00356 17 ft 42 kts 90°
2026-05-03 21:27 18.43403 -66.00236 17 ft 14 kts 27°
2026-05-03 21:28 18.43498 -66.00227 19 ft 10 kts 359°
2026-05-03 21:28 18.43506 -66.00227 17 ft 0 kts 359°
2026-05-03 21:28 18.43360 -66.03591 472 ft 125 kts 86°
2026-05-03 21:28 18.43357 -66.02683 289 ft 123 kts 89°
2026-05-03 21:29 18.43356 -66.01788 121 ft 122 kts 89°
2026-05-03 21:29 18.43358 -66.00905 28 ft 114 kts 88°
2026-05-03 21:29 18.43356 -66.00313 17 ft 26 kts 90°
2026-05-03 21:29 18.43356 -66.02182 183 ft 122 kts 89°
2026-05-03 21:30 18.43355 -66.01286 48 ft 121 kts 88°
2026-05-03 21:30 18.43358 -66.00479 17 ft 85 kts 90°
2026-05-03 21:30 18.43384 -66.00250 18 ft 12 kts 39°